Tracking 19908 objects as of 19-Oct-2019
HD Live streaming from Space Station
objects crossing your sky now

NAVSTAR 69 (USA 248)

Track NAVSTAR 69 (USA 248) now!
NAVSTAR 69 (USA 248) is classified as:


NORAD ID: 39533
Int'l Code: 2014-008A
Perigee: 20,077.5 km
Apogee: 20,302.7 km
Inclination: 53.9 °
Period: 718.0 minutes
Semi major axis: 26561 km
RCS: Unknown
Launch date: February 21, 2014
Source: United States (US)
Launch site: AIR FORCE EASTERN TEST RANGE (AFETR)
PRN: 30

USA 248, known also as GPS 2F-5 will become a primary broadcasting satellite in the constellation when it becomes operational by May 2014.
aabbcc
Your satellite tracking list
Your tracking list is empty




NASA's NSSDC Master Catalog

Two Line Element Set (TLE):
1 39533U 14008A   19292.11673431  .00000025  00000-0  00000+0 0  9991
2 39533  53.8557 248.7282 0042410 196.8321 163.0184  2.00555196 41430
Source of the keplerian elements: AFSPC